Time,TemperatureF,DewpointF,PressureIn,WindDirection,WindDirectionDegrees,WindSpeedMPH,WindSpeedGustMPH,Humidity,HourlyPrecipIn,Conditions,Clouds,dailyrainin,SoftwareType,DateUTC
2013-02-07 00:01:00,39.0,27.0,29.94,NNE,25,3.0,-999.0,60,-99.99,,,-99.99,,2013-02-07 08:01:00,
2013-02-07 00:11:00,40.0,27.0,29.93,ENE,59,5.0,-999.0,60,-99.99,,,-99.99,,2013-02-07 08:11:00,
2013-02-07 00:21:00,39.0,27.0,29.93,NE,44,5.0,-999.0,61,-99.99,,,-99.99,,2013-02-07 08:21:00,
2013-02-07 00:31:00,39.0,27.0,29.92,NE,41,5.0,-999.0,59,-99.99,,,-99.99,,2013-02-07 08:31:00,
2013-02-07 00:41:00,40.0,27.0,29.92,NNW,346,2.0,-999.0,59,-99.99,,,-99.99,,2013-02-07 08:41:00,
2013-02-07 00:52:00,40.0,27.0,29.93,NE,41,5.0,-999.0,59,-99.99,,,-99.99,,2013-02-07 08:52:00,
2013-02-07 01:01:00,40.0,27.0,29.93,NE,41,5.0,-999.0,59,-99.99,,,-99.99,,2013-02-07 09:01:00,
2013-02-07 01:11:00,39.0,27.0,29.93,NE,42,5.0,-999.0,61,-99.99,,,-99.99,,2013-02-07 09:11:00,
2013-02-07 01:21:00,39.0,27.0,29.93,NE,46,5.0,-999.0,61,-99.99,,,-99.99,,2013-02-07 09:21:00,
2013-02-07 01:31:00,39.0,27.0,29.93,NNE,25,5.0,-999.0,61,-99.99,,,-99.99,,2013-02-07 09:31:00,
2013-02-07 01:41:00,38.0,27.0,29.93,NNE,30,7.0,-999.0,62,-99.99,,,-99.99,,2013-02-07 09:41:00,
2013-02-07 01:51:00,39.0,27.0,29.93,NE,36,9.0,-999.0,62,-99.99,,,-99.99,,2013-02-07 09:51:00,
2013-02-07 02:01:00,39.0,27.0,29.93,NE,36,9.0,-999.0,62,-99.99,,,-99.99,,2013-02-07 10:01:00,
2013-02-07 02:11:00,40.0,27.0,29.93,East,79,5.0,-999.0,61,-99.99,,,-99.99,,2013-02-07 10:11:00,
2013-02-07 02:22:00,40.0,28.0,29.93,ENE,70,5.0,-999.0,61,-99.99,,,-99.99,,2013-02-07 10:22:00,
2013-02-07 02:31:00,40.0,28.0,29.93,NE,51,5.0,-999.0,60,-99.99,,,-99.99,,2013-02-07 10:31:00,
2013-02-07 02:41:00,40.0,27.0,29.93,NNE,18,5.0,-999.0,59,-99.99,,,-99.99,,2013-02-07 10:41:00,
2013-02-07 02:51:00,40.0,27.0,29.92,SSW,208,1.0,-999.0,61,-99.99,,,-99.99,,2013-02-07 10:51:00,
2013-02-07 03:01:00,40.0,27.0,29.92,SSW,208,1.0,-999.0,61,-99.99,,,-99.99,,2013-02-07 11:01:00,
2013-02-07 03:11:00,39.0,27.0,29.92,WNW,293,2.0,-999.0,62,-99.99,,,-99.99,,2013-02-07 11:11:00,
2013-02-07 03:22:00,39.0,27.0,29.92,West,281,2.0,-999.0,62,-99.99,,,-99.99,,2013-02-07 11:22:00,
2013-02-07 03:32:00,40.0,27.0,29.92,WNW,286,1.0,-999.0,61,-99.99,,,-99.99,,2013-02-07 11:32:00,
2013-02-07 03:43:00,40.0,27.0,29.91,ESE,117,2.0,-999.0,61,-99.99,,,-99.99,,2013-02-07 11:43:00,
2013-02-07 03:52:00,40.0,28.0,29.91,SE,125,1.0,-999.0,62,-99.99,,,-99.99,,2013-02-07 11:52:00,
2013-02-07 04:01:00,39.0,27.0,29.91,North,354,6.0,-999.0,62,-99.99,,,-99.99,,2013-02-07 12:01:00,
2013-02-07 04:11:00,39.0,28.0,29.91,WNW,303,2.0,-999.0,63,-99.99,,,-99.99,,2013-02-07 12:11:00,
2013-02-07 04:22:00,39.0,28.0,29.91,NW,311,3.0,-999.0,63,-99.99,,,-99.99,,2013-02-07 12:22:00,
2013-02-07 04:32:00,39.0,28.0,29.91,WNW,294,2.0,-999.0,63,-99.99,,,-99.99,,2013-02-07 12:32:00,
2013-02-07 04:42:00,39.0,27.0,29.91,WNW,293,2.0,-999.0,63,-99.99,,,-99.99,,2013-02-07 12:42:00,
2013-02-07 04:52:00,38.0,27.0,29.91,WNW,293,2.0,-999.0,64,-99.99,,,-99.99,,2013-02-07 12:52:00,
2013-02-07 05:02:00,38.0,27.0,29.91,WNW,295,5.0,-999.0,63,-99.99,,,-99.99,,2013-02-07 13:02:00,
2013-02-07 05:11:00,38.0,27.0,29.91,WNW,295,2.0,-999.0,64,-99.99,,,-99.99,,2013-02-07 13:11:00,
2013-02-07 05:21:00,39.0,27.0,29.91,WNW,295,2.0,-999.0,63,-99.99,,,-99.99,,2013-02-07 13:21:00,
2013-02-07 05:31:00,39.0,28.0,29.91,NW,307,5.0,-999.0,63,-99.99,,,-99.99,,2013-02-07 13:31:00,
2013-02-07 05:42:00,39.0,28.0,29.91,NW,312,2.0,-999.0,63,-99.99,,,-99.99,,2013-02-07 13:42:00,
2013-02-07 05:51:00,39.0,28.0,29.91,NW,310,0.0,-999.0,63,-99.99,,,-99.99,,2013-02-07 13:51:00,
2013-02-07 06:01:00,39.0,27.0,29.91,NW,310,1.0,-999.0,63,-99.99,,,-99.99,,2013-02-07 14:01:00,
2013-02-07 06:11:00,38.0,27.0,29.91,NW,321,2.0,-999.0,64,-99.99,,,-99.99,,2013-02-07 14:11:00,
2013-02-07 06:21:00,38.0,28.0,29.91,NNW,334,5.0,-999.0,65,-99.99,,,-99.99,,2013-02-07 14:21:00,
2013-02-07 06:31:00,38.0,27.0,29.91,NNE,13,0.0,-999.0,65,-99.99,,,-99.99,,2013-02-07 14:31:00,
2013-02-07 06:41:00,38.0,28.0,29.91,NNE,13,0.0,-999.0,66,-99.99,,,-99.99,,2013-02-07 14:41:00,
2013-02-07 06:52:00,38.0,28.0,29.91,NNE,13,0.0,-999.0,66,-99.99,,,-99.99,,2013-02-07 14:52:00,
2013-02-07 07:01:00,38.0,28.0,29.91,NNE,13,0.0,-999.0,66,-99.99,,,-99.99,,2013-02-07 15:01:00,
2013-02-07 07:11:00,39.0,27.0,29.92,SE,136,2.0,-999.0,62,-99.99,,,-99.99,,2013-02-07 15:11:00,
2013-02-07 07:21:00,39.0,28.0,29.91,SE,136,0.0,-999.0,63,-99.99,,,-99.99,,2013-02-07 15:21:00,
2013-02-07 07:32:00,39.0,28.0,29.92,SE,136,0.0,-999.0,64,-99.99,,,-99.99,,2013-02-07 15:32:00,
2013-02-07 07:41:00,38.0,28.0,29.92,SE,136,0.0,-999.0,66,-99.99,,,-99.99,,2013-02-07 15:41:00,
2013-02-07 07:52:00,38.0,28.0,29.92,SE,136,1.0,-999.0,67,-99.99,,,-99.99,,2013-02-07 15:52:00,
2013-02-07 08:01:00,38.0,28.0,29.92,NE,49,1.0,-999.0,69,-99.99,,,-99.99,,2013-02-07 16:01:00,
2013-02-07 08:11:00,37.0,29.0,29.92,NE,46,0.0,-999.0,72,-99.99,,,-99.99,,2013-02-07 16:11:00,
2013-02-07 08:21:00,37.0,29.0,29.92,NNW,328,3.0,-999.0,71,-99.99,,,-99.99,,2013-02-07 16:21:00,
2013-02-07 08:31:00,37.0,29.0,29.92,NW,323,0.0,-999.0,70,-99.99,,,-99.99,,2013-02-07 16:31:00,
2013-02-07 08:41:00,38.0,28.0,29.92,NW,324,0.0,-999.0,68,-99.99,,,-99.99,,2013-02-07 16:41:00,
2013-02-07 08:52:00,38.0,29.0,29.92,NW,324,0.0,-999.0,69,-99.99,,,-99.99,,2013-02-07 16:52:00,
2013-02-07 09:01:00,38.0,29.0,29.92,NW,324,0.0,-999.0,69,-99.99,,,-99.99,,2013-02-07 17:01:00,
2013-02-07 09:11:00,38.0,28.0,29.92,NW,324,0.0,-999.0,68,-99.99,,,-99.99,,2013-02-07 17:11:00,
2013-02-07 09:21:00,38.0,29.0,29.92,NW,324,2.0,-999.0,69,-99.99,,,-99.99,,2013-02-07 17:21:00,
2013-02-07 09:31:00,38.0,29.0,29.92,NW,324,0.0,-999.0,68,-99.99,,,-99.99,,2013-02-07 17:31:00,
2013-02-07 09:42:00,38.0,29.0,29.93,NNE,19,2.0,-999.0,70,-99.99,,,-99.99,,2013-02-07 17:42:00,
2013-02-07 09:52:00,38.0,30.0,29.93,ESE,110,0.0,-999.0,70,-99.99,,,-99.99,,2013-02-07 17:52:00,
2013-02-07 10:01:00,38.0,30.0,29.93,ESE,110,0.0,-999.0,70,-99.99,,,-99.99,,2013-02-07 18:01:00,
2013-02-07 10:11:00,39.0,30.0,29.93,ESE,117,1.0,-999.0,70,-99.99,,,-99.99,,2013-02-07 18:11:00,
2013-02-07 10:23:00,39.0,30.0,29.93,ESE,112,2.0,-999.0,70,-99.99,,,-99.99,,2013-02-07 18:23:00,
2013-02-07 10:31:00,38.0,30.0,29.93,SSE,149,2.0,-999.0,71,-99.99,,,-99.99,,2013-02-07 18:31:00,
2013-02-07 10:41:00,38.0,30.0,29.92,SE,124,0.0,-999.0,71,-99.99,,,-99.99,,2013-02-07 18:41:00,
2013-02-07 10:51:00,38.0,30.0,29.92,ESE,123,5.0,-999.0,71,-99.99,,,-99.99,,2013-02-07 18:51:00,
2013-02-07 11:01:00,39.0,30.0,29.93,SE,127,2.0,-999.0,70,-99.99,,,-99.99,,2013-02-07 19:01:00,
2013-02-07 11:11:00,39.0,30.0,29.93,SE,126,2.0,-999.0,70,-99.99,,,-99.99,,2013-02-07 19:11:00,
2013-02-07 11:22:00,39.0,30.0,29.93,SE,132,5.0,-999.0,69,-99.99,,,-99.99,,2013-02-07 19:22:00,
2013-02-07 11:31:00,39.0,30.0,29.93,SE,138,1.0,-999.0,70,-99.99,,,-99.99,,2013-02-07 19:31:00,
2013-02-07 11:41:00,39.0,31.0,29.93,SE,138,0.0,-999.0,70,-99.99,,,-99.99,,2013-02-07 19:41:00,
2013-02-07 11:51:00,39.0,30.0,29.93,SE,137,2.0,-999.0,70,-99.99,,,-99.99,,2013-02-07 19:51:00,
2013-02-07 12:01:00,38.0,31.0,29.92,East,101,2.0,-999.0,75,-99.99,,,-99.99,,2013-02-07 20:01:00,
2013-02-07 12:11:00,37.0,31.0,29.92,NNE,24,5.0,-999.0,77,-99.99,,,-99.99,,2013-02-07 20:11:00,
2013-02-07 12:21:00,37.0,31.0,29.92,North,351,1.0,-999.0,80,-99.99,,,-99.99,,2013-02-07 20:21:00,
2013-02-07 12:31:00,36.0,32.0,29.92,NNW,346,2.0,-999.0,84,-99.99,,,-99.99,,2013-02-07 20:31:00,
2013-02-07 12:41:00,36.0,32.0,29.92,NNW,345,0.0,-999.0,85,-99.99,,,-99.99,,2013-02-07 20:41:00,
2013-02-07 12:52:00,36.0,32.0,29.92,NNW,341,0.0,-999.0,86,-99.99,,,-99.99,,2013-02-07 20:52:00,
2013-02-07 13:01:00,36.0,32.0,29.92,NNW,341,0.0,-999.0,86,-99.99,,,-99.99,,2013-02-07 21:01:00,
2013-02-07 13:11:00,35.0,32.0,29.92,NNW,341,0.0,-999.0,87,-99.99,,,-99.99,,2013-02-07 21:11:00,
2013-02-07 13:21:00,35.0,32.0,29.91,NNW,341,0.0,-999.0,86,-99.99,,,-99.99,,2013-02-07 21:21:00,
2013-02-07 13:31:00,35.0,32.0,29.91,NNW,341,0.0,-999.0,88,-99.99,,,-99.99,,2013-02-07 21:31:00,
2013-02-07 13:41:00,35.0,31.0,29.91,NNW,341,0.0,-999.0,87,-99.99,,,-99.99,,2013-02-07 21:41:00,
2013-02-07 13:51:00,35.0,31.0,29.90,NNW,341,0.0,-999.0,88,-99.99,,,-99.99,,2013-02-07 21:51:00,
2013-02-07 14:01:00,35.0,32.0,29.90,NNW,341,0.0,-999.0,89,-99.99,,,-99.99,,2013-02-07 22:01:00,
2013-02-07 14:11:00,36.0,32.0,29.90,WSW,257,6.0,-999.0,84,-99.99,,,-99.99,,2013-02-07 22:11:00,
2013-02-07 14:21:00,37.0,32.0,29.90,West,279,2.0,-999.0,81,-99.99,,,-99.99,,2013-02-07 22:21:00,
2013-02-07 14:31:00,37.0,32.0,29.90,WNW,298,5.0,-999.0,80,-99.99,,,-99.99,,2013-02-07 22:31:00,
2013-02-07 14:42:00,37.0,32.0,29.90,NNW,333,2.0,-999.0,81,-99.99,,,-99.99,,2013-02-07 22:42:00,
2013-02-07 14:51:00,37.0,32.0,29.90,North,351,1.0,-999.0,82,-99.99,,,-99.99,,2013-02-07 22:51:00,
2013-02-07 15:01:00,36.0,30.0,29.90,NW,304,7.0,-999.0,78,-99.99,,,-99.99,,2013-02-07 23:01:00,
2013-02-07 15:11:00,36.0,29.0,29.91,WNW,287,5.0,-999.0,74,-99.99,,,-99.99,,2013-02-07 23:11:00,
2013-02-07 15:21:00,36.0,29.0,29.92,West,275,5.0,-999.0,74,-99.99,,,-99.99,,2013-02-07 23:21:00,
2013-02-07 15:31:00,36.0,29.0,29.92,West,267,2.0,-999.0,73,-99.99,,,-99.99,,2013-02-07 23:31:00,
2013-02-07 15:41:00,36.0,29.0,29.92,West,269,2.0,-999.0,73,-99.99,,,-99.99,,2013-02-07 23:41:00,
2013-02-07 15:52:00,36.0,28.0,29.92,West,263,5.0,-999.0,71,-99.99,,,-99.99,,2013-02-07 23:52:00,
2013-02-07 16:01:00,36.0,28.0,29.92,West,266,2.0,-999.0,71,-99.99,,,-99.99,,2013-02-08 00:01:00,
2013-02-07 16:11:00,36.0,27.0,29.92,WSW,258,3.0,-999.0,71,-99.99,,,-99.99,,2013-02-08 00:11:00,
2013-02-07 16:21:00,36.0,27.0,29.92,WSW,258,3.0,-999.0,71,-99.99,,,-99.99,,2013-02-08 00:21:00,
2013-02-07 16:31:00,36.0,27.0,29.92,WSW,247,5.0,-999.0,71,-99.99,,,-99.99,,2013-02-08 00:31:00,
2013-02-07 16:41:00,36.0,27.0,29.92,West,264,3.0,-999.0,70,-99.99,,,-99.99,,2013-02-08 00:41:00,
2013-02-07 16:52:00,36.0,27.0,29.93,WNW,284,5.0,-999.0,71,-99.99,,,-99.99,,2013-02-08 00:52:00,
2013-02-07 17:01:00,35.0,27.0,29.93,NNW,327,7.0,-999.0,72,-99.99,,,-99.99,,2013-02-08 01:01:00,
2013-02-07 17:11:00,35.0,28.0,29.93,NW,304,6.0,-999.0,73,-99.99,,,-99.99,,2013-02-08 01:11:00,
2013-02-07 17:21:00,35.0,28.0,29.93,NW,304,6.0,-999.0,73,-99.99,,,-99.99,,2013-02-08 01:21:00,
2013-02-07 17:31:00,35.0,28.0,29.93,WSW,242,2.0,-999.0,75,-99.99,,,-99.99,,2013-02-08 01:31:00,
2013-02-07 17:41:00,35.0,27.0,29.93,WSW,254,9.0,-999.0,71,-99.99,,,-99.99,,2013-02-08 01:41:00,
2013-02-07 17:51:00,35.0,26.0,29.94,West,271,8.0,-999.0,68,-99.99,,,-99.99,,2013-02-08 01:51:00,
2013-02-07 18:01:00,35.0,26.0,29.94,West,271,8.0,-999.0,68,-99.99,,,-99.99,,2013-02-08 02:01:00,
2013-02-07 18:11:00,35.0,25.0,29.95,West,260,3.0,-999.0,67,-99.99,,,-99.99,,2013-02-08 02:11:00,
2013-02-07 18:21:00,35.0,25.0,29.95,West,260,3.0,-999.0,67,-99.99,,,-99.99,,2013-02-08 02:21:00,
2013-02-07 18:31:00,34.0,26.0,29.95,West,265,5.0,-999.0,71,-99.99,,,-99.99,,2013-02-08 02:31:00,
2013-02-07 18:42:00,32.0,32.0,29.95,WSW,244,5.0,-999.0,202,-99.99,,,-99.99,,2013-02-08 02:42:00,
2013-02-07 18:52:00,33.0,27.0,29.96,West,281,3.0,-999.0,76,-99.99,,,-99.99,,2013-02-08 02:52:00,
2013-02-07 19:01:00,33.0,27.0,29.96,West,281,3.0,-999.0,76,-99.99,,,-99.99,,2013-02-08 03:01:00,
2013-02-07 19:12:00,32.0,32.0,29.96,West,275,2.0,-999.0,202,-99.99,,,-99.99,,2013-02-08 03:12:00,
2013-02-07 19:22:00,34.0,27.0,29.96,West,265,5.0,-999.0,77,-99.99,,,-99.99,,2013-02-08 03:22:00,
2013-02-07 19:31:00,33.0,28.0,29.96,WSW,240,12.0,-999.0,80,-99.99,,,-99.99,,2013-02-08 03:31:00,
2013-02-07 19:41:00,33.0,27.0,29.96,WSW,247,9.0,-999.0,79,-99.99,,,-99.99,,2013-02-08 03:41:00,
2013-02-07 19:51:00,33.0,27.0,29.96,WSW,242,9.0,-999.0,79,-99.99,,,-99.99,,2013-02-08 03:51:00,
2013-02-07 20:01:00,33.0,27.0,29.96,WSW,241,5.0,-999.0,79,-99.99,,,-99.99,,2013-02-08 04:01:00,
2013-02-07 20:11:00,33.0,27.0,29.97,WSW,240,7.0,-999.0,77,-99.99,,,-99.99,,2013-02-08 04:11:00,
2013-02-07 20:21:00,33.0,27.0,29.97,WSW,250,5.0,-999.0,79,-99.99,,,-99.99,,2013-02-08 04:21:00,
2013-02-07 20:31:00,33.0,26.0,29.97,NW,308,2.0,-999.0,77,-99.99,,,-99.99,,2013-02-08 04:31:00,
2013-02-07 20:41:00,33.0,26.0,29.97,WNW,300,2.0,-999.0,77,-99.99,,,-99.99,,2013-02-08 04:41:00,
2013-02-07 20:51:00,33.0,26.0,29.97,WNW,300,6.0,-999.0,77,-99.99,,,-99.99,,2013-02-08 04:51:00,
2013-02-07 21:01:00,32.0,27.0,29.98,SW,234,2.0,-999.0,79,-99.99,,,-99.99,,2013-02-08 05:01:00,
2013-02-07 21:11:00,32.0,27.0,29.98,SW,234,2.0,-999.0,79,-99.99,,,-99.99,,2013-02-08 05:11:00,
2013-02-07 21:22:00,33.0,26.0,29.98,WSW,237,6.0,-999.0,75,-99.99,,,-99.99,,2013-02-08 05:22:00,
2013-02-07 21:31:00,33.0,26.0,29.98,SW,233,2.0,-999.0,75,-99.99,,,-99.99,,2013-02-08 05:31:00,
2013-02-07 21:41:00,32.0,25.0,29.98,West,264,5.0,-999.0,75,-99.99,,,-99.99,,2013-02-08 05:41:00,
2013-02-07 21:52:00,32.0,25.0,29.98,West,264,5.0,-999.0,75,-99.99,,,-99.99,,2013-02-08 05:52:00,
2013-02-07 22:01:00,32.0,25.0,29.98,West,280,3.0,-999.0,74,-99.99,,,-99.99,,2013-02-08 06:01:00,
2013-02-07 22:11:00,32.0,27.0,29.99,West,278,0.0,-999.0,82,-99.99,,,-99.99,,2013-02-08 06:11:00,
2013-02-07 22:21:00,31.0,27.0,29.99,West,278,0.0,-999.0,84,-99.99,,,-99.99,,2013-02-08 06:21:00,
2013-02-07 22:31:00,31.0,27.0,29.99,West,278,0.0,-999.0,85,-99.99,,,-99.99,,2013-02-08 06:31:00,
2013-02-07 22:41:00,31.0,27.0,29.99,West,278,0.0,-999.0,85,-99.99,,,-99.99,,2013-02-08 06:41:00,
2013-02-07 22:51:00,31.0,27.0,29.99,West,278,0.0,-999.0,85,-99.99,,,-99.99,,2013-02-08 06:51:00,
2013-02-07 23:01:00,31.0,26.0,29.98,West,259,5.0,-999.0,81,-99.99,,,-99.99,,2013-02-08 07:01:00,
2013-02-07 23:11:00,32.0,25.0,29.98,WSW,244,7.0,-999.0,76,-99.99,,,-99.99,,2013-02-08 07:11:00,
2013-02-07 23:21:00,32.0,25.0,29.99,WSW,244,9.0,-999.0,74,-99.99,,,-99.99,,2013-02-08 07:21:00,
2013-02-07 23:31:00,32.0,25.0,29.99,WSW,250,9.0,-999.0,73,-99.99,,,-99.99,,2013-02-08 07:31:00,
2013-02-07 23:42:00,32.0,25.0,29.99,WSW,250,7.0,-999.0,73,-99.99,,,-99.99,,2013-02-08 07:42:00,
2013-02-07 23:51:00,32.0,24.0,29.99,WSW,255,7.0,-999.0,72,-99.99,,,-99.99,,2013-02-08 07:51:00,